CW9386 Weather Reports


Display with metric or nautical units.
time (UTC)temp
F
wind
direction
speed
MPH
gust
MPH
rain 1hr
in
rain 24hr
in
rain mn
in
humidity
%
barometer
mb
20260510095629 67 80 2.0 3.0 0.00 0.00 0.00 24 1013.9
20260510094626 67 77 2.0 3.0 0.00 0.00 0.00 24 1013.8
20260510093640 67 74 0.0 2.0 0.00 0.00 0.00 24 1013.7
20260510092634 68 76 1.0 3.0 0.00 0.00 0.00 22 1013.5
20260510091625 69 96 2.0 4.0 0.00 0.00 0.00 22 1013.4
20260510085640 73 124 2.0 5.0 0.00 0.00 0.00 18 1013.4
20260510084637 74 46 0.0 4.0 0.00 0.00 0.00 17 1013.2
20260510083625 74 58 0.0 3.0 0.00 0.00 0.00 16 1013.0
20260510081640 75 355 1.0 2.0 0.00 0.00 0.00 16 1012.9
20260510080636 75 355 2.0 4.0 0.00 0.00 0.00 15 1013.0
20260510075636 75 304 3.0 7.0 0.00 0.00 0.00 15 1012.9
20260510074621 75 168 1.0 5.0 0.00 0.00 0.00 15 1012.9
20260510073637 74 153 3.0 5.0 0.00 0.00 0.00 16 1012.8
20260510072634 73 206 3.0 4.0 0.00 0.00 0.00 17 1012.8
20260510071633 72 146 2.0 7.0 0.00 0.00 0.00 17 1012.8
20260510070629 73 67 1.0 4.0 0.00 0.00 0.00 17 1012.9
20260510065636 73 69 0.0 2.0 0.00 0.00 0.00 16 1012.9
20260510064638 73 64 6.0 7.0 0.00 0.00 0.00 16 1012.9
20260510063634 74 123 4.0 5.0 0.00 0.00 0.00 16 1012.8
20260510062641 74 131 2.0 4.0 0.00 0.00 0.00 16 1012.8
20260510061639 74 138 2.0 4.0 0.00 0.00 0.00 15 1012.8
20260510060633 74 138 2.0 5.0 0.00 0.00 0.00 15 1012.8
20260510055734 74 156 2.0 5.0 0.00 0.00 0.00 15 1012.7
20260510054744 74 147 2.0 4.0 0.00 0.00 0.00 15 1012.8
20260510053741 75 135 3.0 6.0 0.00 0.00 0.00 14 1012.8
20260510052737 75 180 5.0 8.0 0.00 0.00 0.00 14 1012.8
20260510051739 76 162 2.0 6.0 0.00 0.00 0.00 14 1012.9
20260510050736 77 152 2.0 4.0 0.00 0.00 0.00 13 1012.9
20260510045725 78 171 3.0 5.0 0.00 0.00 0.00 12 1013.0
20260510044740 79 217 2.0 3.0 0.00 0.00 0.00 12 1012.2
20260510043737 80 223 3.0 8.0 0.00 0.00 0.00 11 1012.0
20260510042733 80 277 6.0 10.0 0.00 0.00 0.00 11 1012.1
20260510040742 80 280 5.0 9.0 0.00 0.00 0.00 11 1012.0
20260510035738 81 255 5.0 9.0 0.00 0.00 0.00 11 1011.8
20260510034736 81 205 4.0 9.0 0.00 0.00 0.00 11 1011.7
20260510033724 82 228 3.0 10.0 0.00 0.00 0.00 11 1011.5
20260510032737 82 265 4.0 8.0 0.00 0.00 0.00 10 1011.5
20260510031730 83 205 5.0 10.0 0.00 0.00 0.00 10 1011.4
20260510025743 84 234 8.0 12.0 0.00 0.00 0.00 10 1011.2
20260510024731 84 272 5.0 11.0 0.00 0.00 0.00 10 1011.0
20260510023726 84 239 7.0 11.0 0.00 0.00 0.00 10 1010.9
20260510022738 85 233 7.0 10.0 0.00 0.00 0.00 10 1010.7
20260510021735 85 229 5.0 10.0 0.00 0.00 0.00 10 1010.6
20260510014724 87 243 6.0 11.0 0.00 0.00 0.00 9 1010.2
20260510013738 88 247 7.0 12.0 0.00 0.00 0.00 9 1010.1
20260510012729 88 234 8.0 11.0 0.00 0.00 0.00 9 1010.0
20260510011727 89 198 5.0 10.0 0.00 0.00 0.00 9 1009.9
20260510010740 90 232 4.0 11.0 0.00 0.00 0.00 8 1009.9
20260510005731 91 163 7.0 12.0 0.00 0.00 0.00 8 1009.9
20260510002726 92 207 7.0 13.0 0.00 0.00 0.00 8 1009.9
20260510001723 92 259 4.0 13.0 0.00 0.00 0.00 8 1009.9
20260510000719 92 200 7.0 12.0 0.00 0.00 0.00 8 1009.9
20260509235726 93 186 5.0 12.0 0.00 0.00 0.00 8 1010.0
20260509233724 93 256 4.0 10.0 0.00 0.00 0.00 7 1010.3
20260509232718 93 201 6.0 11.0 0.00 0.00 0.00 7 1010.5
20260509231736 94 238 4.0 9.0 0.00 0.00 0.00 7 1010.5
20260509230725 94 105 1.0 7.0 0.00 0.00 0.00 7 1010.6
20260509224718 93 193 1.0 9.0 0.00 0.00 0.00 7 1011.1
20260509223731 93 142 5.0 11.0 0.00 0.00 0.00 7 1011.1
20260509221726 93 244 4.0 8.0 0.00 0.00 0.00 7 1011.3
20260509220722 93 105 2.0 8.0 0.00 0.00 0.00 7 1011.5
20260509215720 93 125 8.0 11.0 0.00 0.00 0.00 7 1011.7
20260509214731 93 232 5.0 14.0 0.00 0.00 0.00 7 1012.0
20260509212723 94 190 10.0 17.0 0.00 0.00 0.00 7 1012.2
20260509210725 93 321 6.0 12.0 0.00 0.00 0.00 7 1012.6
20260509205732 92 273 2.0 8.0 0.00 0.00 0.00 7 1012.7
20260509204730 92 122 5.0 16.0 0.00 0.00 0.00 7 1012.9
20260509202717 92 209 9.0 16.0 0.00 0.00 0.00 7 1013.4
20260509201717 93 205 7.0 14.0 0.00 0.00 0.00 7 1013.5
20260509200728 93 164 8.0 15.0 0.00 0.00 0.00 8 1013.6
20260509193720 91 202 2.0 12.0 0.00 0.00 0.00 9 1014.0
20260509191724 90 239 7.0 10.0 0.00 0.00 0.00 10 1014.2
20260509185726 88 269 3.0 6.0 0.00 0.00 0.00 11 1014.4
20260509184720 88 264 4.0 9.0 0.00 0.00 0.00 11 1014.6
20260509183717 87 248 6.0 9.0 0.00 0.00 0.00 12 1014.7
20260509182726 87 305 4.0 8.0 0.00 0.00 0.00 12 1014.9
20260509181719 87 239 4.0 8.0 0.00 0.00 0.00 12 1015.1
20260509180713 87 251 4.0 8.0 0.00 0.00 0.00 13 1015.2
20260509175724 85 280 3.0 9.0 0.00 0.00 0.00 14 1015.3
20260509174717 85 265 2.0 9.0 0.00 0.00 0.00 14 1015.4
20260509172712 83 247 2.0 7.0 0.00 0.00 0.00 15 1015.4
20260509171721 83 277 0.0 8.0 0.00 0.00 0.00 14 1015.6
20260509170713 83 237 1.0 5.0 0.00 0.00 0.00 14 1015.6
20260509165710 82 259 3.0 6.0 0.00 0.00 0.00 15 1015.5
20260509164724 80 253 2.0 6.0 0.00 0.00 0.00 15 1015.5
20260509163718 79 237 3.0 6.0 0.00 0.00 0.00 17 1015.7
20260509162712 78 212 1.0 5.0 0.00 0.00 0.00 17 1015.6
20260509160725 77 308 3.0 6.0 0.00 0.00 0.00 19 1015.7
20260509155721 76 259 4.0 7.0 0.00 0.00 0.00 19 1015.7
20260509153727 76 205 3.0 6.0 0.00 0.00 0.00 20 1015.7
20260509152715 75 234 3.0 5.0 0.00 0.00 0.00 20 1015.8
20260509151709 75 207 3.0 8.0 0.00 0.00 0.00 21 1015.8
20260509150717 74 160 4.0 7.0 0.00 0.00 0.00 21 1015.8
20260509144719 72 259 3.0 6.0 0.00 0.00 0.00 24 1015.6
20260509143714 71 259 2.0 2.0 0.00 0.00 0.00 24 1015.7
20260509142709 70 269 1.0 2.0 0.00 0.00 0.00 25 1015.6
20260509141724 69 269 0.0 1.0 0.00 0.00 0.00 25 1015.6
20260509140719 68 269 0.0 2.0 0.00 0.00 0.00 27 1015.6
20260509135713 66 212 0.0 1.0 0.00 0.00 0.00 27 1015.6
20260509133707 64 182 0.0 1.0 0.00 0.00 0.00 29 1014.7
20260509132717 62 113 0.0 1.0 0.00 0.00 0.00 28 1014.8
20260509130711 58 94 5.0 8.0 0.00 0.00 0.00 32 1014.7
20260509125707 56 41 1.0 5.0 0.00 0.00 0.00 33 1014.8
20260509124716 55 40 2.0 5.0 0.00 0.00 0.00 33 1014.7
20260509123711 55 5 3.0 7.0 0.00 0.00 0.00 33 1014.6
20260509121721 56 173 2.0 4.0 0.00 0.00 0.00 33 1014.0
20260509120720 57 78 1.0 2.0 0.00 0.00 0.00 32 1013.5
20260509115715 58 84 3.0 5.0 0.00 0.00 0.00 31 1013.3
20260509114710 59 90 1.0 2.0 0.00 0.00 0.00 29 1014.1
20260509113712 59 11 0.0 1.0 0.00 0.00 0.00 28 1013.9
20260509112711 59 11 0.0 1.0 0.00 0.00 0.00 27 1013.8
20260509111710 60 10 0.0 1.0 0.00 0.00 0.00 27 1013.7
20260509105707 61 10 1.0 4.0 0.00 0.00 0.00 25 1013.7
20260509104702 62 360 3.0 4.0 0.00 0.00 0.00 25 1013.7
20260509103714 63 44 0.0 2.0 0.00 0.00 0.00 24 1013.5
20260509102709 64 58 1.0 3.0 0.00 0.00 0.00 24 1013.5
20260509101709 64 88 0.0 6.0 0.00 0.00 0.00 22 1013.5
20260509100715 64 97 2.0 4.0 0.00 0.00 0.00 22 1013.4